Time,TemperatureF,DewpointF,PressureIn,WindDirection,WindDirectionDegrees,WindSpeedMPH,WindSpeedGustMPH,Humidity,HourlyPrecipIn,Conditions,Clouds,dailyrainin,SoftwareType,DateUTC
2013-08-31 00:01:00,72.3,63.1,29.65,SW,225,0.0,0.0,73,0.00,,,0.00,WUHU216HW,2013-08-31 04:01:00,
2013-08-31 00:06:00,72.1,63.0,29.65,SW,225,0.0,0.0,73,0.00,,,0.00,WUHU216HW,2013-08-31 04:06:00,
2013-08-31 00:11:00,72.1,63.0,29.64,SW,225,0.0,0.0,73,0.00,,,0.00,WUHU216HW,2013-08-31 04:11:00,
2013-08-31 00:16:00,72.1,63.0,29.64,SW,225,0.0,0.0,73,0.00,,,0.00,WUHU216HW,2013-08-31 04:16:00,
2013-08-31 00:21:00,71.9,62.8,29.64,SW,225,0.0,0.0,73,0.00,,,0.00,WUHU216HW,2013-08-31 04:21:00,
2013-08-31 00:27:00,71.9,62.8,29.63,SW,225,0.0,0.0,73,0.00,,,0.00,WUHU216HW,2013-08-31 04:27:00,
2013-08-31 00:32:00,71.9,62.8,29.64,SW,225,0.0,0.0,73,0.00,,,0.00,WUHU216HW,2013-08-31 04:32:00,
2013-08-31 00:37:00,71.7,63.0,29.64,SW,225,0.0,0.0,74,0.00,,,0.00,WUHU216HW,2013-08-31 04:37:00,
2013-08-31 00:42:00,71.7,63.0,29.64,SW,225,0.0,0.0,74,0.00,,,0.00,WUHU216HW,2013-08-31 04:42:00,
2013-08-31 00:47:00,71.7,63.0,29.64,SW,225,0.0,0.0,74,0.00,,,0.00,WUHU216HW,2013-08-31 04:47:00,
2013-08-31 00:52:00,71.7,63.0,29.65,SW,225,0.0,0.0,74,0.00,,,0.00,WUHU216HW,2013-08-31 04:52:00,
2013-08-31 00:57:00,71.7,63.0,29.66,WSW,248,0.0,0.0,74,0.00,,,0.00,WUHU216HW,2013-08-31 04:57:00,
2013-08-31 01:02:00,71.6,63.0,29.66,West,270,0.0,0.0,74,0.00,,,0.00,WUHU216HW,2013-08-31 05:02:00,
2013-08-31 01:07:00,71.6,62.8,29.67,NNW,338,0.0,0.0,74,0.00,,,0.00,WUHU216HW,2013-08-31 05:07:00,
2013-08-31 01:12:00,71.4,62.6,29.66,NNW,338,0.0,0.0,74,0.00,,,0.00,WUHU216HW,2013-08-31 05:12:00,
2013-08-31 01:17:00,71.4,63.0,29.65,NNW,338,0.0,0.0,75,0.00,,,0.00,WUHU216HW,2013-08-31 05:17:00,
2013-08-31 01:22:00,71.4,63.0,29.65,NNW,338,0.0,0.0,75,0.00,,,0.00,WUHU216HW,2013-08-31 05:22:00,
2013-08-31 01:27:00,71.4,63.4,29.65,NNW,338,0.0,0.0,76,0.00,,,0.00,WUHU216HW,2013-08-31 05:27:00,
2013-08-31 01:32:00,71.4,63.4,29.65,NNW,338,0.0,0.0,76,0.00,,,0.00,WUHU216HW,2013-08-31 05:32:00,
2013-08-31 01:37:00,71.4,63.4,29.65,NNW,338,0.0,0.0,76,0.00,,,0.00,WUHU216HW,2013-08-31 05:37:00,
2013-08-31 01:42:00,71.2,63.2,29.65,NNW,338,0.0,0.0,76,0.00,,,0.00,WUHU216HW,2013-08-31 05:42:00,
2013-08-31 01:47:00,71.2,63.2,29.65,NNW,338,0.0,0.0,76,0.00,,,0.00,WUHU216HW,2013-08-31 05:47:00,
2013-08-31 01:52:00,71.2,63.2,29.65,NNW,338,0.0,0.0,76,0.00,,,0.00,WUHU216HW,2013-08-31 05:52:00,
2013-08-31 01:57:00,71.2,63.6,29.65,NNW,338,0.0,0.0,77,0.00,,,0.00,WUHU216HW,2013-08-31 05:57:00,
2013-08-31 02:02:00,71.2,63.6,29.65,NNW,338,0.0,0.0,77,0.00,,,0.00,WUHU216HW,2013-08-31 06:02:00,
2013-08-31 02:07:00,71.2,63.6,29.65,NNW,338,0.0,0.0,77,0.00,,,0.00,WUHU216HW,2013-08-31 06:07:00,
2013-08-31 02:12:00,71.2,63.6,29.64,NNW,338,0.0,0.0,77,0.00,,,0.00,WUHU216HW,2013-08-31 06:12:00,
2013-08-31 02:17:00,71.0,63.8,29.65,NNW,338,0.0,0.0,78,0.00,,,0.00,WUHU216HW,2013-08-31 06:17:00,
2013-08-31 02:23:00,70.8,63.6,29.65,NNW,338,0.0,0.0,78,0.00,,,0.00,WUHU216HW,2013-08-31 06:23:00,
2013-08-31 02:28:00,70.8,63.6,29.65,NNW,338,0.0,0.0,78,0.00,,,0.00,WUHU216HW,2013-08-31 06:28:00,
2013-08-31 02:33:00,70.8,63.6,29.65,NNW,338,0.0,0.0,78,0.00,,,0.00,WUHU216HW,2013-08-31 06:33:00,
2013-08-31 02:38:00,70.8,63.6,29.65,NNW,338,0.0,0.0,78,0.00,,,0.00,WUHU216HW,2013-08-31 06:38:00,
2013-08-31 02:43:00,70.7,63.4,29.65,NNW,338,0.0,0.0,78,0.00,,,0.00,WUHU216HW,2013-08-31 06:43:00,
2013-08-31 02:48:00,70.5,63.2,29.65,NNW,338,0.0,0.0,78,0.00,,,0.00,WUHU216HW,2013-08-31 06:48:00,
2013-08-31 02:53:00,70.5,63.2,29.65,NNW,338,0.0,0.0,78,0.00,,,0.00,WUHU216HW,2013-08-31 06:53:00,
2013-08-31 02:58:00,70.5,63.2,29.65,NNW,338,0.0,0.0,78,0.00,,,0.00,WUHU216HW,2013-08-31 06:58:00,
2013-08-31 03:03:00,70.5,63.2,29.65,NNW,338,0.0,0.0,78,0.00,,,0.00,WUHU216HW,2013-08-31 07:03:00,
2013-08-31 03:08:00,70.3,63.1,29.65,NNW,338,0.0,0.0,78,0.00,,,0.00,WUHU216HW,2013-08-31 07:08:00,
2013-08-31 03:13:00,70.3,63.4,29.66,NNW,338,0.0,0.0,79,0.00,,,0.00,WUHU216HW,2013-08-31 07:13:00,
2013-08-31 03:18:00,70.3,63.4,29.66,NNW,338,0.0,0.0,79,0.00,,,0.00,WUHU216HW,2013-08-31 07:18:00,
2013-08-31 03:23:00,70.3,63.4,29.66,NNW,338,0.0,0.0,79,0.00,,,0.00,WUHU216HW,2013-08-31 07:23:00,
2013-08-31 03:28:00,70.3,63.4,29.65,NNW,338,0.0,0.0,79,0.00,,,0.00,WUHU216HW,2013-08-31 07:28:00,
2013-08-31 03:33:00,70.3,63.4,29.65,NNW,338,0.0,0.0,79,0.00,,,0.00,WUHU216HW,2013-08-31 07:33:00,
2013-08-31 03:38:00,70.3,63.8,29.65,NNW,338,0.0,0.0,80,0.00,,,0.00,WUHU216HW,2013-08-31 07:38:00,
2013-08-31 03:43:00,70.3,63.8,29.65,NNW,338,0.0,0.0,80,0.00,,,0.00,WUHU216HW,2013-08-31 07:43:00,
2013-08-31 03:48:00,70.1,63.6,29.65,NNW,338,0.0,0.0,80,0.00,,,0.00,WUHU216HW,2013-08-31 07:48:00,
2013-08-31 03:53:00,70.1,63.6,29.65,NNW,338,0.0,0.0,80,0.00,,,0.00,WUHU216HW,2013-08-31 07:53:00,
2013-08-31 03:58:00,70.1,63.6,29.65,NNW,338,0.0,0.0,80,0.00,,,0.00,WUHU216HW,2013-08-31 07:58:00,
2013-08-31 04:03:00,70.3,63.8,29.65,NNW,338,0.0,0.0,80,0.00,,,0.00,WUHU216HW,2013-08-31 08:03:00,
2013-08-31 04:08:00,70.3,63.8,29.64,NNW,338,0.0,0.0,80,0.00,,,0.00,WUHU216HW,2013-08-31 08:08:00,
2013-08-31 04:14:00,70.3,63.8,29.64,NNW,338,0.0,0.0,80,0.00,,,0.00,WUHU216HW,2013-08-31 08:14:00,
2013-08-31 04:19:00,70.3,63.8,29.64,NNW,338,0.0,0.0,80,0.00,,,0.00,WUHU216HW,2013-08-31 08:19:00,
2013-08-31 04:24:00,70.3,63.8,29.64,NNW,338,0.0,0.0,80,0.00,,,0.00,WUHU216HW,2013-08-31 08:24:00,
2013-08-31 04:29:00,70.3,63.8,29.64,NNW,338,0.0,0.0,80,0.00,,,0.00,WUHU216HW,2013-08-31 08:29:00,
2013-08-31 04:34:00,70.3,63.8,29.65,NNW,338,0.0,0.0,80,0.00,,,0.00,WUHU216HW,2013-08-31 08:34:00,
2013-08-31 04:39:00,70.3,63.8,29.65,NNW,338,0.0,0.0,80,0.00,,,0.00,WUHU216HW,2013-08-31 08:39:00,
2013-08-31 04:44:00,70.3,63.8,29.64,NNW,338,0.0,0.0,80,0.00,,,0.00,WUHU216HW,2013-08-31 08:44:00,
2013-08-31 04:49:00,70.3,63.8,29.65,NNW,338,0.0,0.0,80,0.00,,,0.00,WUHU216HW,2013-08-31 08:49:00,
2013-08-31 04:54:00,70.3,64.2,29.64,NNW,338,0.0,0.0,81,0.00,,,0.00,WUHU216HW,2013-08-31 08:54:00,
2013-08-31 04:59:00,70.3,64.2,29.64,NNW,338,0.0,0.0,81,0.00,,,0.00,WUHU216HW,2013-08-31 08:59:00,
2013-08-31 05:04:00,70.1,64.0,29.65,NNW,338,0.0,0.0,81,0.00,,,0.00,WUHU216HW,2013-08-31 09:04:00,
2013-08-31 05:09:00,70.1,64.0,29.65,NNW,338,0.0,0.0,81,0.00,,,0.00,WUHU216HW,2013-08-31 09:09:00,
2013-08-31 05:14:00,70.1,64.0,29.65,NNW,338,0.0,0.0,81,0.00,,,0.00,WUHU216HW,2013-08-31 09:14:00,
2013-08-31 05:19:00,70.1,64.0,29.65,NNW,338,0.0,0.0,81,0.00,,,0.00,WUHU216HW,2013-08-31 09:19:00,
2013-08-31 05:24:00,70.1,64.0,29.65,NNW,338,0.0,0.0,81,0.00,,,0.00,WUHU216HW,2013-08-31 09:24:00,
2013-08-31 05:29:00,70.1,64.0,29.65,NNW,338,0.0,0.0,81,0.00,,,0.00,WUHU216HW,2013-08-31 09:29:00,
2013-08-31 05:34:00,70.1,64.0,29.65,NNW,338,0.0,0.0,81,0.00,,,0.00,WUHU216HW,2013-08-31 09:34:00,
2013-08-31 05:39:00,70.1,64.0,29.65,NNW,338,0.0,0.0,81,0.00,,,0.00,WUHU216HW,2013-08-31 09:39:00,
2013-08-31 05:44:00,70.1,64.0,29.65,NNW,338,0.0,0.0,81,0.00,,,0.00,WUHU216HW,2013-08-31 09:44:00,
2013-08-31 05:49:00,70.1,64.0,29.65,NNW,338,0.0,0.0,81,0.00,,,0.00,WUHU216HW,2013-08-31 09:49:00,
2013-08-31 05:54:00,70.1,64.0,29.66,NNW,338,0.0,0.0,81,0.00,,,0.00,WUHU216HW,2013-08-31 09:54:00,
2013-08-31 05:59:00,70.1,64.0,29.66,NNW,338,0.0,0.0,81,0.00,,,0.00,WUHU216HW,2013-08-31 09:59:00,
2013-08-31 06:05:00,70.1,64.0,29.66,NNW,338,0.0,0.0,81,0.00,,,0.00,WUHU216HW,2013-08-31 10:05:00,
2013-08-31 06:10:00,70.1,64.0,29.66,NNW,338,0.0,0.0,81,0.00,,,0.00,WUHU216HW,2013-08-31 10:10:00,
2013-08-31 06:15:00,70.1,64.0,29.66,NNW,338,0.0,0.0,81,0.00,,,0.00,WUHU216HW,2013-08-31 10:15:00,
2013-08-31 06:20:00,69.9,63.8,29.66,NNW,338,0.0,0.0,81,0.00,,,0.00,WUHU216HW,2013-08-31 10:20:00,
2013-08-31 06:25:00,69.9,64.1,29.66,NNW,338,0.0,0.0,82,0.00,,,0.00,WUHU216HW,2013-08-31 10:25:00,
2013-08-31 06:30:00,69.9,64.1,29.66,NNW,338,0.0,0.0,82,0.00,,,0.00,WUHU216HW,2013-08-31 10:30:00,
2013-08-31 06:35:00,69.9,64.1,29.66,NNW,338,0.0,0.0,82,0.00,,,0.00,WUHU216HW,2013-08-31 10:35:00,
2013-08-31 06:40:00,69.9,64.1,29.66,NNW,338,0.0,0.0,82,0.00,,,0.00,WUHU216HW,2013-08-31 10:40:00,
2013-08-31 06:46:00,69.9,64.1,29.66,NNW,338,0.0,0.0,82,0.00,,,0.00,WUHU216HW,2013-08-31 10:46:00,
2013-08-31 06:51:00,69.9,64.1,29.66,NNW,338,0.0,0.0,82,0.00,,,0.00,WUHU216HW,2013-08-31 10:51:00,
2013-08-31 06:56:00,69.9,64.1,29.66,NNW,338,0.0,0.0,82,0.00,,,0.00,WUHU216HW,2013-08-31 10:56:00,
2013-08-31 07:01:00,69.9,64.1,29.67,NNW,338,0.0,0.0,82,0.00,,,0.00,WUHU216HW,2013-08-31 11:01:00,
2013-08-31 07:06:00,69.9,64.1,29.67,NNW,338,0.0,0.0,82,0.00,,,0.00,WUHU216HW,2013-08-31 11:06:00,
2013-08-31 07:11:00,69.9,64.1,29.67,NNW,338,0.0,0.0,82,0.00,,,0.00,WUHU216HW,2013-08-31 11:11:00,
2013-08-31 07:16:00,69.9,64.1,29.67,NNW,338,0.0,0.0,82,0.00,,,0.00,WUHU216HW,2013-08-31 11:16:00,
2013-08-31 07:21:00,69.9,64.1,29.67,NNW,338,0.0,0.0,82,0.00,,,0.00,WUHU216HW,2013-08-31 11:21:00,
2013-08-31 07:26:00,69.9,64.1,29.67,NNW,338,0.0,0.0,82,0.00,,,0.00,WUHU216HW,2013-08-31 11:26:00,
2013-08-31 07:31:00,69.9,64.1,29.67,NNW,338,0.0,0.0,82,0.00,,,0.00,WUHU216HW,2013-08-31 11:31:00,
2013-08-31 07:36:00,70.1,64.3,29.67,NNW,338,0.0,0.0,82,0.00,,,0.00,WUHU216HW,2013-08-31 11:36:00,
2013-08-31 07:41:00,70.1,64.3,29.67,NNW,338,0.0,0.0,82,0.00,,,0.00,WUHU216HW,2013-08-31 11:41:00,
2013-08-31 07:46:00,70.1,64.3,29.67,NNW,338,0.0,0.0,82,0.00,,,0.00,WUHU216HW,2013-08-31 11:46:00,
2013-08-31 07:52:00,70.3,64.5,29.68,NNW,338,0.0,0.0,82,0.00,,,0.00,WUHU216HW,2013-08-31 11:52:00,
2013-08-31 07:57:00,70.3,64.5,29.68,NNW,338,0.0,0.0,82,0.00,,,0.00,WUHU216HW,2013-08-31 11:57:00,
2013-08-31 08:02:00,70.3,64.5,29.68,NNW,338,0.0,0.0,82,0.00,,,0.00,WUHU216HW,2013-08-31 12:02:00,
2013-08-31 08:07:00,70.5,64.7,29.68,NNW,338,0.0,0.0,82,0.00,,,0.00,WUHU216HW,2013-08-31 12:07:00,
2013-08-31 08:12:00,70.5,64.7,29.67,NNW,338,0.0,0.0,82,0.00,,,0.00,WUHU216HW,2013-08-31 12:12:00,
2013-08-31 08:17:00,70.5,64.7,29.68,NNW,338,0.0,0.0,82,0.00,,,0.00,WUHU216HW,2013-08-31 12:17:00,
2013-08-31 08:22:00,70.5,64.7,29.68,NNW,338,0.0,0.0,82,0.00,,,0.00,WUHU216HW,2013-08-31 12:22:00,
2013-08-31 08:27:00,70.7,64.9,29.68,NNW,338,0.0,0.0,82,0.00,,,0.00,WUHU216HW,2013-08-31 12:27:00,
2013-08-31 08:32:00,70.8,65.0,29.68,NNW,338,0.0,0.0,82,0.00,,,0.00,WUHU216HW,2013-08-31 12:32:00,
2013-08-31 08:37:00,70.8,65.0,29.68,NNW,338,0.0,0.0,82,0.00,,,0.00,WUHU216HW,2013-08-31 12:37:00,
2013-08-31 08:42:00,70.8,65.0,29.68,NNW,338,0.0,0.0,82,0.00,,,0.00,WUHU216HW,2013-08-31 12:42:00,
2013-08-31 08:47:00,70.8,65.0,29.68,NNW,338,0.0,0.0,82,0.00,,,0.00,WUHU216HW,2013-08-31 12:47:00,
2013-08-31 08:52:00,71.2,65.4,29.68,NNW,338,0.0,0.0,82,0.00,,,0.00,WUHU216HW,2013-08-31 12:52:00,
2013-08-31 08:57:00,71.2,65.2,29.68,NNW,338,0.0,0.0,82,0.00,,,0.00,WUHU216HW,2013-08-31 12:57:00,
2013-08-31 09:02:00,71.2,65.4,29.68,NNW,338,0.0,0.0,82,0.00,,,0.00,WUHU216HW,2013-08-31 13:02:00,
2013-08-31 09:07:00,71.4,65.6,29.68,NNW,338,0.0,0.0,82,0.00,,,0.00,WUHU216HW,2013-08-31 13:07:00,
2013-08-31 09:12:00,71.7,65.9,29.67,NNW,338,0.0,0.0,82,0.00,,,0.00,WUHU216HW,2013-08-31 13:12:00,
2013-08-31 09:17:00,71.9,65.8,29.67,NNW,338,0.0,0.0,81,0.00,,,0.00,WUHU216HW,2013-08-31 13:17:00,
2013-08-31 09:22:00,72.1,66.0,29.67,NNW,338,0.0,0.0,81,0.00,,,0.00,WUHU216HW,2013-08-31 13:22:00,
2013-08-31 09:27:00,72.3,66.5,29.68,NNW,338,0.0,0.0,82,0.00,,,0.00,WUHU216HW,2013-08-31 13:27:00,
2013-08-31 09:32:00,72.5,66.7,29.67,NNW,338,0.0,0.0,82,0.00,,,0.00,WUHU216HW,2013-08-31 13:32:00,
2013-08-31 09:37:00,72.5,66.3,29.68,NNW,338,0.0,0.0,81,0.00,,,0.00,WUHU216HW,2013-08-31 13:37:00,
2013-08-31 09:42:00,72.6,66.5,29.68,NNW,338,0.0,0.0,81,0.00,,,0.00,WUHU216HW,2013-08-31 13:42:00,
2013-08-31 09:47:00,72.6,66.5,29.68,NNW,338,0.0,0.0,81,0.00,,,0.00,WUHU216HW,2013-08-31 13:47:00,
2013-08-31 09:52:00,72.8,66.7,29.68,NNW,338,0.0,0.0,81,0.00,,,0.00,WUHU216HW,2013-08-31 13:52:00,
2013-08-31 09:57:00,73.0,67.2,29.67,NNW,338,0.0,0.0,82,0.00,,,0.00,WUHU216HW,2013-08-31 13:57:00,
2013-08-31 10:02:00,73.5,67.7,29.68,West,270,0.0,0.0,82,0.00,,,0.00,WUHU216HW,2013-08-31 14:02:00,
2013-08-31 10:07:00,73.7,67.6,29.68,West,270,0.0,0.0,81,0.00,,,0.00,WUHU216HW,2013-08-31 14:07:00,
2013-08-31 10:12:00,73.9,67.8,29.67,WSW,248,0.0,0.0,81,0.00,,,0.00,WUHU216HW,2013-08-31 14:12:00,
2013-08-31 10:18:00,74.1,67.9,29.67,WSW,248,0.0,0.0,81,0.00,,,0.00,WUHU216HW,2013-08-31 14:18:00,
2013-08-31 10:23:00,74.4,68.0,29.67,SE,135,3.3,3.3,80,0.00,,,0.00,WUHU216HW,2013-08-31 14:23:00,
2013-08-31 10:28:00,74.8,68.3,29.67,SE,135,0.0,3.3,80,0.00,,,0.00,WUHU216HW,2013-08-31 14:28:00,
2013-08-31 10:33:00,74.8,67.9,29.67,SE,135,0.0,1.3,79,0.00,,,0.00,WUHU216HW,2013-08-31 14:33:00,
2013-08-31 10:38:00,74.8,67.9,29.67,SE,135,0.0,0.0,79,0.00,,,0.00,WUHU216HW,2013-08-31 14:38:00,
2013-08-31 10:43:00,74.8,67.9,29.67,SE,135,0.0,0.0,79,0.00,,,0.00,WUHU216HW,2013-08-31 14:43:00,
2013-08-31 10:48:00,74.8,67.5,29.67,SE,135,0.0,0.0,78,0.00,,,0.00,WUHU216HW,2013-08-31 14:48:00,
2013-08-31 10:53:00,74.8,67.5,29.67,SE,135,0.0,0.0,78,0.00,,,0.00,WUHU216HW,2013-08-31 14:53:00,
2013-08-31 10:58:00,74.6,67.3,29.67,SE,135,0.0,0.0,78,0.00,,,0.00,WUHU216HW,2013-08-31 14:58:00,
2013-08-31 11:03:00,74.6,67.3,29.67,SE,135,0.0,0.0,78,0.00,,,0.00,WUHU216HW,2013-08-31 15:03:00,
2013-08-31 11:08:00,74.4,67.2,29.67,SE,135,0.0,0.0,78,0.00,,,0.00,WUHU216HW,2013-08-31 15:08:00,
2013-08-31 11:14:00,74.4,67.2,29.67,SE,135,0.0,0.0,78,0.00,,,0.00,WUHU216HW,2013-08-31 15:14:00,
2013-08-31 11:19:00,74.4,67.2,29.67,SE,135,0.0,0.0,78,0.00,,,0.00,WUHU216HW,2013-08-31 15:19:00,
2013-08-31 11:24:00,74.4,67.2,29.68,SE,135,0.0,0.0,78,0.00,,,0.00,WUHU216HW,2013-08-31 15:24:00,
2013-08-31 11:29:00,74.4,67.2,29.68,SE,135,0.0,0.0,78,0.00,,,0.00,WUHU216HW,2013-08-31 15:29:00,
2013-08-31 11:34:00,74.4,67.2,29.68,SE,135,0.0,0.0,78,0.00,,,0.00,WUHU216HW,2013-08-31 15:34:00,
2013-08-31 11:39:00,74.3,67.0,29.67,SE,135,0.0,0.0,78,0.00,,,0.00,WUHU216HW,2013-08-31 15:39:00,
2013-08-31 11:44:00,74.3,67.0,29.67,SE,135,0.0,0.0,78,0.00,,,0.00,WUHU216HW,2013-08-31 15:44:00,
2013-08-31 11:49:00,74.3,67.0,29.67,SE,135,0.0,0.0,78,0.00,,,0.00,WUHU216HW,2013-08-31 15:49:00,
2013-08-31 11:55:00,74.1,66.8,29.67,SE,135,0.0,0.0,78,0.00,,,0.00,WUHU216HW,2013-08-31 15:55:00,
2013-08-31 12:00:00,74.1,67.2,29.67,ESE,113,2.4,2.4,79,0.00,,,0.00,WUHU216HW,2013-08-31 16:00:00,
2013-08-31 12:05:00,74.1,67.2,29.67,ESE,113,0.0,2.4,79,0.00,,,0.00,WUHU216HW,2013-08-31 16:05:00,
2013-08-31 12:10:00,74.1,67.2,29.67,ESE,113,0.0,2.4,79,0.00,,,0.00,WUHU216HW,2013-08-31 16:10:00,
2013-08-31 12:15:00,74.1,67.2,29.67,ESE,113,0.0,0.0,79,0.00,,,0.00,WUHU216HW,2013-08-31 16:15:00,
2013-08-31 12:20:00,74.1,67.2,29.67,ESE,113,0.0,0.0,79,0.00,,,0.00,WUHU216HW,2013-08-31 16:20:00,
2013-08-31 12:25:00,74.1,67.2,29.67,ESE,113,0.0,0.0,79,0.00,,,0.00,WUHU216HW,2013-08-31 16:25:00,
2013-08-31 12:30:00,74.1,67.2,29.67,ESE,113,0.0,0.0,79,0.00,,,0.00,WUHU216HW,2013-08-31 16:30:00,
2013-08-31 12:35:00,73.9,67.0,29.67,ESE,113,0.0,0.0,79,0.00,,,0.00,WUHU216HW,2013-08-31 16:35:00,
2013-08-31 12:40:00,73.9,67.4,29.67,ESE,113,0.0,0.0,80,0.00,,,0.00,WUHU216HW,2013-08-31 16:40:00,
2013-08-31 12:45:00,73.9,67.4,29.67,ESE,113,0.0,0.0,80,0.00,,,0.00,WUHU216HW,2013-08-31 16:45:00,
2013-08-31 12:50:00,73.7,67.2,29.67,ESE,113,0.0,0.0,80,0.00,,,0.00,WUHU216HW,2013-08-31 16:50:00,
2013-08-31 12:55:00,73.7,66.8,29.67,ESE,113,0.0,0.0,79,0.00,,,0.00,WUHU216HW,2013-08-31 16:55:00,
2013-08-31 13:00:00,73.5,66.7,29.67,ESE,113,0.0,0.0,79,0.00,,,0.00,WUHU216HW,2013-08-31 17:00:00,
2013-08-31 13:05:00,73.5,66.7,29.67,ESE,113,0.0,0.0,79,0.00,,,0.00,WUHU216HW,2013-08-31 17:05:00,
2013-08-31 13:10:00,73.5,66.7,29.66,ESE,113,0.0,0.0,79,0.00,,,0.00,WUHU216HW,2013-08-31 17:10:00,
2013-08-31 13:15:00,73.5,66.7,29.66,ESE,113,0.0,0.0,79,0.00,,,0.00,WUHU216HW,2013-08-31 17:15:00,
2013-08-31 13:20:00,73.5,66.7,29.66,ESE,113,0.0,0.0,79,0.00,,,0.00,WUHU216HW,2013-08-31 17:20:00,
2013-08-31 13:25:00,73.5,66.7,29.66,SE,135,0.0,0.0,79,0.00,,,0.00,WUHU216HW,2013-08-31 17:25:00,
2013-08-31 13:30:00,73.7,66.8,29.66,SE,135,0.0,0.0,79,0.00,,,0.00,WUHU216HW,2013-08-31 17:30:00,
2013-08-31 13:36:00,73.7,66.8,29.66,ENE,68,0.0,0.8,79,0.00,,,0.00,WUHU216HW,2013-08-31 17:36:00,
2013-08-31 13:41:00,73.9,67.0,29.66,East,90,0.0,0.8,79,0.00,,,0.00,WUHU216HW,2013-08-31 17:41:00,
2013-08-31 13:46:00,73.9,67.0,29.66,East,90,0.0,0.0,79,0.00,,,0.00,WUHU216HW,2013-08-31 17:46:00,
2013-08-31 13:51:00,74.1,67.2,29.66,East,90,0.0,0.0,79,0.00,,,0.00,WUHU216HW,2013-08-31 17:51:00,
2013-08-31 13:56:00,74.1,67.2,29.66,East,90,0.0,0.0,79,0.00,,,0.00,WUHU216HW,2013-08-31 17:56:00,
2013-08-31 14:01:00,74.1,67.2,29.66,East,90,0.0,0.0,79,0.00,,,0.00,WUHU216HW,2013-08-31 18:01:00,
2013-08-31 14:06:00,74.1,67.2,29.66,ESE,113,0.0,0.0,79,0.00,,,0.00,WUHU216HW,2013-08-31 18:06:00,
2013-08-31 14:11:00,74.1,67.6,29.66,ESE,113,0.0,0.0,80,0.00,,,0.00,WUHU216HW,2013-08-31 18:11:00,
2013-08-31 14:16:00,74.3,67.8,29.66,ESE,113,0.0,0.0,80,0.00,,,0.00,WUHU216HW,2013-08-31 18:16:00,
2013-08-31 14:21:00,74.1,67.6,29.66,ESE,113,0.0,0.0,80,0.00,,,0.00,WUHU216HW,2013-08-31 18:21:00,
2013-08-31 14:26:00,74.3,67.8,29.66,ESE,113,0.0,0.0,80,0.00,,,0.00,WUHU216HW,2013-08-31 18:26:00,
2013-08-31 14:31:00,74.3,67.8,29.65,ESE,113,0.0,0.0,80,0.00,,,0.00,WUHU216HW,2013-08-31 18:31:00,
2013-08-31 14:36:00,74.3,67.8,29.66,ESE,113,0.0,0.0,80,0.00,,,0.00,WUHU216HW,2013-08-31 18:36:00,
2013-08-31 14:41:00,74.3,67.8,29.65,ESE,113,0.0,0.0,80,0.00,,,0.00,WUHU216HW,2013-08-31 18:41:00,
2013-08-31 14:46:00,74.1,67.6,29.65,ESE,113,0.0,0.0,80,0.00,,,0.00,WUHU216HW,2013-08-31 18:46:00,
2013-08-31 14:51:00,74.3,67.8,29.65,ESE,113,0.0,2.0,80,0.00,,,0.00,WUHU216HW,2013-08-31 18:51:00,
2013-08-31 14:56:00,74.3,67.8,29.65,SE,135,0.0,2.0,80,0.00,,,0.00,WUHU216HW,2013-08-31 18:56:00,
2013-08-31 15:01:00,74.3,67.8,29.65,ESE,113,0.0,0.0,80,0.00,,,0.00,WUHU216HW,2013-08-31 19:01:00,
2013-08-31 15:06:00,74.3,67.4,29.65,ESE,113,0.0,0.0,79,0.00,,,0.00,WUHU216HW,2013-08-31 19:06:00,
2013-08-31 15:11:00,74.3,67.4,29.65,ESE,113,0.0,0.0,79,0.00,,,0.00,WUHU216HW,2013-08-31 19:11:00,
2013-08-31 15:16:00,74.3,67.4,29.65,ESE,113,0.0,0.0,79,0.00,,,0.00,WUHU216HW,2013-08-31 19:16:00,
2013-08-31 15:21:00,74.3,67.4,29.65,ESE,113,0.0,0.0,79,0.00,,,0.00,WUHU216HW,2013-08-31 19:21:00,
2013-08-31 15:27:00,74.1,67.2,29.65,ESE,113,0.0,3.1,79,0.00,,,0.00,WUHU216HW,2013-08-31 19:27:00,
2013-08-31 15:32:00,74.1,67.2,29.65,ESE,113,0.0,3.1,79,0.00,,,0.00,WUHU216HW,2013-08-31 19:32:00,
2013-08-31 15:37:00,74.1,67.2,29.65,ESE,113,0.0,0.0,79,0.00,,,0.00,WUHU216HW,2013-08-31 19:37:00,
2013-08-31 15:42:00,74.1,67.2,29.65,ESE,113,0.0,0.0,79,0.00,,,0.00,WUHU216HW,2013-08-31 19:42:00,
2013-08-31 15:47:00,73.9,67.0,29.65,ESE,113,0.0,0.0,79,0.00,,,0.00,WUHU216HW,2013-08-31 19:47:00,
2013-08-31 15:52:00,73.9,67.0,29.65,ESE,113,0.0,0.0,79,0.00,,,0.00,WUHU216HW,2013-08-31 19:52:00,
2013-08-31 15:57:00,73.9,67.0,29.65,ESE,113,0.0,0.0,79,0.00,,,0.00,WUHU216HW,2013-08-31 19:57:00,
2013-08-31 16:02:00,73.9,67.0,29.65,ESE,113,0.0,0.0,79,0.00,,,0.00,WUHU216HW,2013-08-31 20:02:00,
2013-08-31 16:07:00,73.7,66.8,29.65,ESE,113,0.0,0.0,79,0.00,,,0.00,WUHU216HW,2013-08-31 20:07:00,
2013-08-31 16:12:00,73.9,67.0,29.65,ESE,113,0.0,0.0,79,0.00,,,0.00,WUHU216HW,2013-08-31 20:12:00,
2013-08-31 16:17:00,73.9,67.0,29.65,ESE,113,0.0,0.0,79,0.00,,,0.00,WUHU216HW,2013-08-31 20:17:00,
2013-08-31 16:22:00,73.9,67.0,29.65,ESE,113,0.0,0.0,79,0.00,,,0.00,WUHU216HW,2013-08-31 20:22:00,
2013-08-31 16:27:00,73.9,67.0,29.65,ESE,113,0.0,0.0,79,0.00,,,0.00,WUHU216HW,2013-08-31 20:27:00,
2013-08-31 16:32:00,73.9,67.0,29.65,ESE,113,0.0,0.0,79,0.00,,,0.00,WUHU216HW,2013-08-31 20:32:00,
2013-08-31 16:37:00,73.9,67.0,29.65,ESE,113,0.0,0.0,79,0.00,,,0.00,WUHU216HW,2013-08-31 20:37:00,
2013-08-31 16:42:00,73.9,67.0,29.65,ESE,113,0.0,0.0,79,0.00,,,0.00,WUHU216HW,2013-08-31 20:42:00,
2013-08-31 16:47:00,73.7,66.8,29.65,ESE,113,0.0,0.0,79,0.00,,,0.00,WUHU216HW,2013-08-31 20:47:00,
2013-08-31 16:52:00,73.7,66.8,29.65,ESE,113,0.0,0.0,79,0.00,,,0.00,WUHU216HW,2013-08-31 20:52:00,
2013-08-31 16:57:00,73.7,66.8,29.64,ESE,113,0.0,0.0,79,0.00,,,0.00,WUHU216HW,2013-08-31 20:57:00,
2013-08-31 17:02:00,73.7,66.8,29.64,ESE,113,0.0,0.0,79,0.00,,,0.00,WUHU216HW,2013-08-31 21:02:00,
2013-08-31 17:07:00,73.7,66.8,29.64,ESE,113,0.0,0.0,79,0.00,,,0.00,WUHU216HW,2013-08-31 21:07:00,
2013-08-31 17:13:00,73.7,66.8,29.64,ESE,113,0.0,0.0,79,0.00,,,0.00,WUHU216HW,2013-08-31 21:13:00,
2013-08-31 17:18:00,73.7,66.5,29.64,ESE,113,0.0,0.0,78,0.00,,,0.00,WUHU216HW,2013-08-31 21:18:00,
2013-08-31 17:23:00,73.7,66.5,29.65,ESE,113,0.0,0.0,78,0.00,,,0.00,WUHU216HW,2013-08-31 21:23:00,
2013-08-31 17:28:00,73.5,66.7,29.65,ESE,113,0.0,0.0,79,0.00,,,0.00,WUHU216HW,2013-08-31 21:28:00,
2013-08-31 17:33:00,73.7,66.5,29.65,ESE,113,0.0,0.0,78,0.00,,,0.00,WUHU216HW,2013-08-31 21:33:00,
2013-08-31 17:38:00,73.5,66.3,29.65,ESE,113,0.0,0.0,78,0.00,,,0.00,WUHU216HW,2013-08-31 21:38:00,
2013-08-31 17:43:00,73.5,66.3,29.65,ESE,113,0.0,0.0,78,0.00,,,0.00,WUHU216HW,2013-08-31 21:43:00,
2013-08-31 17:48:00,73.5,66.3,29.65,ESE,113,0.0,0.0,78,0.00,,,0.00,WUHU216HW,2013-08-31 21:48:00,
2013-08-31 17:53:00,73.5,66.3,29.65,ESE,113,0.0,0.0,78,0.00,,,0.00,WUHU216HW,2013-08-31 21:53:00,
2013-08-31 17:58:00,73.5,66.3,29.65,ESE,113,0.0,0.0,78,0.00,,,0.00,WUHU216HW,2013-08-31 21:58:00,
2013-08-31 18:03:00,73.5,66.3,29.65,ESE,113,0.0,0.0,78,0.00,,,0.00,WUHU216HW,2013-08-31 22:03:00,
2013-08-31 18:08:00,73.5,66.3,29.65,ESE,113,0.0,0.0,78,0.00,,,0.00,WUHU216HW,2013-08-31 22:08:00,
2013-08-31 18:13:00,73.2,65.9,29.65,ESE,113,0.0,0.0,78,0.00,,,0.00,WUHU216HW,2013-08-31 22:13:00,
2013-08-31 18:18:00,73.2,65.9,29.65,ESE,113,0.0,0.0,78,0.00,,,0.00,WUHU216HW,2013-08-31 22:18:00,
2013-08-31 18:23:00,73.2,66.3,29.65,ESE,113,0.0,0.0,79,0.00,,,0.00,WUHU216HW,2013-08-31 22:23:00,
2013-08-31 18:28:00,73.2,66.3,29.65,ESE,113,0.0,0.0,79,0.00,,,0.00,WUHU216HW,2013-08-31 22:28:00,
2013-08-31 18:33:00,73.2,66.3,29.66,ESE,113,0.0,0.0,79,0.00,,,0.00,WUHU216HW,2013-08-31 22:33:00,
2013-08-31 18:38:00,73.2,66.3,29.66,ESE,113,0.0,0.0,79,0.00,,,0.00,WUHU216HW,2013-08-31 22:38:00,
2013-08-31 18:43:00,73.2,66.3,29.66,ESE,113,0.0,0.0,79,0.00,,,0.00,WUHU216HW,2013-08-31 22:43:00,
2013-08-31 18:48:00,73.2,66.3,29.65,ESE,113,0.0,0.0,79,0.00,,,0.00,WUHU216HW,2013-08-31 22:48:00,
2013-08-31 18:54:00,73.2,66.3,29.65,ESE,113,0.0,0.0,79,0.00,,,0.00,WUHU216HW,2013-08-31 22:54:00,
2013-08-31 18:59:00,73.2,66.3,29.66,ESE,113,0.0,0.0,79,0.00,,,0.00,WUHU216HW,2013-08-31 22:59:00,
2013-08-31 19:04:00,73.2,66.3,29.66,ESE,113,0.0,0.0,79,0.00,,,0.00,WUHU216HW,2013-08-31 23:04:00,
2013-08-31 19:09:00,73.2,66.7,29.66,ESE,113,0.0,0.0,80,0.00,,,0.00,WUHU216HW,2013-08-31 23:09:00,
2013-08-31 19:14:00,73.0,66.5,29.66,ESE,113,0.0,0.0,80,0.00,,,0.00,WUHU216HW,2013-08-31 23:14:00,
2013-08-31 19:19:00,73.0,66.5,29.66,ESE,113,0.0,0.0,80,0.00,,,0.00,WUHU216HW,2013-08-31 23:19:00,
2013-08-31 19:24:00,73.0,66.5,29.66,ESE,113,0.0,0.0,80,0.00,,,0.00,WUHU216HW,2013-08-31 23:24:00,
2013-08-31 19:29:00,73.0,66.5,29.66,ESE,113,0.0,0.0,80,0.00,,,0.00,WUHU216HW,2013-08-31 23:29:00,
2013-08-31 19:34:00,72.8,66.3,29.67,ESE,113,0.0,0.0,80,0.00,,,0.00,WUHU216HW,2013-08-31 23:34:00,
2013-08-31 19:39:00,72.8,66.3,29.67,ESE,113,0.0,0.0,80,0.00,,,0.00,WUHU216HW,2013-08-31 23:39:00,
2013-08-31 19:44:00,72.6,66.2,29.68,ESE,113,0.0,0.0,80,0.00,,,0.00,WUHU216HW,2013-08-31 23:44:00,
2013-08-31 19:49:00,72.6,66.2,29.67,ESE,113,0.0,0.0,80,0.00,,,0.00,WUHU216HW,2013-08-31 23:49:00,
2013-08-31 19:54:00,72.6,66.2,29.68,East,90,0.0,0.0,80,0.00,,,0.00,WUHU216HW,2013-08-31 23:54:00,
2013-08-31 19:59:00,72.6,66.2,29.67,ENE,68,0.0,0.0,80,0.00,,,0.00,WUHU216HW,2013-08-31 23:59:00,
2013-08-31 20:04:00,72.6,66.2,29.68,ENE,68,0.0,0.0,80,0.00,,,0.00,WUHU216HW,2013-09-01 00:04:00,
2013-08-31 20:09:00,72.6,66.2,29.67,ENE,68,0.0,0.0,80,0.00,,,0.00,WUHU216HW,2013-09-01 00:09:00,
2013-08-31 20:14:00,72.5,66.0,29.67,ENE,68,0.0,0.0,80,0.00,,,0.00,WUHU216HW,2013-09-01 00:14:00,
2013-08-31 20:19:00,72.5,66.0,29.67,NE,45,0.0,0.0,80,0.00,,,0.00,WUHU216HW,2013-09-01 00:19:00,
2013-08-31 20:24:00,72.5,66.0,29.68,NE,45,0.0,0.0,80,0.00,,,0.00,WUHU216HW,2013-09-01 00:24:00,
2013-08-31 20:29:00,72.3,66.1,29.67,NE,45,0.0,0.0,81,0.00,,,0.00,WUHU216HW,2013-09-01 00:29:00,
2013-08-31 20:34:00,72.3,66.1,29.67,NE,45,0.0,0.0,81,0.00,,,0.00,WUHU216HW,2013-09-01 00:34:00,
2013-08-31 20:39:00,72.3,66.1,29.67,NE,45,0.0,0.0,81,0.00,,,0.00,WUHU216HW,2013-09-01 00:39:00,
2013-08-31 20:44:00,72.3,66.1,29.68,NE,45,0.0,0.0,81,0.00,,,0.00,WUHU216HW,2013-09-01 00:44:00,
2013-08-31 20:49:00,72.3,66.1,29.68,NE,45,0.0,0.0,81,0.00,,,0.00,WUHU216HW,2013-09-01 00:49:00,
2013-08-31 20:54:00,72.1,66.0,29.68,NE,45,0.0,0.0,81,0.00,,,0.00,WUHU216HW,2013-09-01 00:54:00,
2013-08-31 20:59:00,72.1,66.0,29.68,NE,45,0.0,0.0,81,0.00,,,0.00,WUHU216HW,2013-09-01 00:59:00,
2013-08-31 21:04:00,72.1,66.0,29.68,NE,45,0.0,0.0,81,0.00,,,0.00,WUHU216HW,2013-09-01 01:04:00,
2013-08-31 21:09:00,71.9,65.8,29.68,NE,45,0.0,0.0,81,0.00,,,0.00,WUHU216HW,2013-09-01 01:09:00,
2013-08-31 21:14:00,71.9,65.8,29.68,NE,45,0.0,0.0,81,0.00,,,0.00,WUHU216HW,2013-09-01 01:14:00,
2013-08-31 21:19:00,71.7,65.6,29.68,NE,45,0.0,0.0,81,0.00,,,0.00,WUHU216HW,2013-09-01 01:19:00,
2013-08-31 21:24:00,71.7,65.6,29.68,NE,45,0.0,0.0,81,0.00,,,0.00,WUHU216HW,2013-09-01 01:24:00,
2013-08-31 21:29:00,71.7,65.6,29.68,NNE,23,0.0,0.0,81,0.00,,,0.00,WUHU216HW,2013-09-01 01:29:00,
2013-08-31 21:34:00,71.7,65.6,29.69,NNE,23,0.0,0.0,81,0.00,,,0.00,WUHU216HW,2013-09-01 01:34:00,
2013-08-31 21:39:00,71.7,65.6,29.69,NNE,23,0.0,0.0,81,0.00,,,0.00,WUHU216HW,2013-09-01 01:39:00,
2013-08-31 21:44:00,71.7,65.6,29.69,NNE,23,0.0,0.0,81,0.00,,,0.00,WUHU216HW,2013-09-01 01:44:00,
2013-08-31 21:50:00,71.7,65.6,29.69,North,0,0.0,0.0,81,0.00,,,0.00,WUHU216HW,2013-09-01 01:50:00,
2013-08-31 21:55:00,71.7,65.6,29.69,NNE,23,0.0,0.0,81,0.00,,,0.00,WUHU216HW,2013-09-01 01:55:00,
2013-08-31 22:00:00,71.6,65.4,29.69,North,0,0.0,0.0,81,0.00,,,0.00,WUHU216HW,2013-09-01 02:00:00,
2013-08-31 22:05:00,71.7,65.6,29.69,North,0,0.0,0.0,81,0.00,,,0.00,WUHU216HW,2013-09-01 02:05:00,
2013-08-31 22:10:00,71.6,65.4,29.69,North,0,0.0,0.0,81,0.00,,,0.00,WUHU216HW,2013-09-01 02:10:00,
2013-08-31 22:15:00,71.4,65.2,29.70,North,0,0.0,0.0,81,0.00,,,0.00,WUHU216HW,2013-09-01 02:15:00,
2013-08-31 22:20:00,71.4,65.2,29.70,North,0,0.0,0.0,81,0.00,,,0.00,WUHU216HW,2013-09-01 02:20:00,
2013-08-31 22:25:00,71.4,65.6,29.70,North,0,0.0,0.0,82,0.00,,,0.00,WUHU216HW,2013-09-01 02:25:00,
2013-08-31 22:30:00,71.4,65.6,29.70,North,0,0.0,0.0,82,0.00,,,0.00,WUHU216HW,2013-09-01 02:30:00,
2013-08-31 22:35:00,71.4,65.6,29.70,North,0,0.0,0.0,82,0.00,,,0.00,WUHU216HW,2013-09-01 02:35:00,
2013-08-31 22:40:00,71.4,65.6,29.70,North,0,0.0,0.0,82,0.00,,,0.00,WUHU216HW,2013-09-01 02:40:00,
2013-08-31 22:45:00,71.4,65.6,29.70,North,0,0.0,0.0,82,0.00,,,0.00,WUHU216HW,2013-09-01 02:45:00,
2013-08-31 22:50:00,71.4,65.6,29.70,North,0,0.0,0.0,82,0.00,,,0.00,WUHU216HW,2013-09-01 02:50:00,
2013-08-31 22:55:00,71.4,65.6,29.70,North,0,0.0,0.0,82,0.00,,,0.00,WUHU216HW,2013-09-01 02:55:00,
2013-08-31 23:00:00,71.4,65.6,29.70,North,0,0.0,0.0,82,0.00,,,0.00,WUHU216HW,2013-09-01 03:00:00,
2013-08-31 23:05:00,71.4,65.6,29.70,North,0,0.0,0.0,82,0.00,,,0.00,WUHU216HW,2013-09-01 03:05:00,
2013-08-31 23:10:00,71.4,65.6,29.70,WNW,293,0.0,0.0,82,0.00,,,0.00,WUHU216HW,2013-09-01 03:10:00,
2013-08-31 23:15:00,71.4,65.6,29.70,WNW,293,0.0,0.0,82,0.00,,,0.00,WUHU216HW,2013-09-01 03:15:00,
2013-08-31 23:20:00,71.4,65.6,29.70,WNW,293,0.0,0.0,82,0.00,,,0.00,WUHU216HW,2013-09-01 03:20:00,
2013-08-31 23:25:00,71.4,65.6,29.70,WNW,293,0.0,0.0,82,0.00,,,0.00,WUHU216HW,2013-09-01 03:25:00,
2013-08-31 23:30:00,71.4,65.6,29.70,WNW,293,0.0,0.0,82,0.00,,,0.00,WUHU216HW,2013-09-01 03:30:00,
2013-08-31 23:35:00,71.4,65.6,29.70,WNW,293,0.0,0.0,82,0.00,,,0.00,WUHU216HW,2013-09-01 03:35:00,
2013-08-31 23:40:00,71.2,65.4,29.71,WNW,293,0.0,0.0,82,0.00,,,0.00,WUHU216HW,2013-09-01 03:40:00,
2013-08-31 23:45:00,71.2,65.4,29.70,WNW,293,0.0,0.0,82,0.00,,,0.00,WUHU216HW,2013-09-01 03:45:00,
2013-08-31 23:50:00,71.2,65.4,29.70,WNW,293,0.0,0.0,82,0.00,,,0.00,WUHU216HW,2013-09-01 03:50:00,
2013-08-31 23:56:00,71.2,65.4,29.70,WNW,293,0.0,0.0,82,0.00,,,0.00,WUHU216HW,2013-09-01 03:56:00,